![]() |
EMODnet Physics ERDDAP
Easier access to scientific data |
log in|
Brought to you by EMODnet Physics |
| Dataset Title: | NDBC - Collection of dew point temperature (DEWT) TimeSeries - IN SITU MultiPointTimeSeriesObservation
|
| Institution: | NDBC (Dataset ID: TS_DEWT_NDBC) |
| Information: | Summary
| License
| FGDC
| ISO 19115
| Metadata
| Background
| Subset
| Data Access Form
| Make a graph
|
| Name | Last modified | Size | Description | |
|---|---|---|---|---|
| Parent Directory | - | - | ||
| PBPA2_TS_DEWT_012007.nc | 06-Oct-2024 14:31 | 1625177 | ||
| PBPA2_TS_DEWT_012008.nc | 06-Oct-2024 15:09 | 1626918 | ||
| PBPA2_TS_DEWT_012016.nc | 06-Oct-2024 15:32 | 1626762 | ||
| PBPA2_TS_DEWT_012017.nc | 06-Oct-2024 16:06 | 1626498 | ||
| PBPA2_TS_DEWT_012018.nc | 06-Oct-2024 16:46 | 1476921 | ||
| PBPA2_TS_DEWT_012019.nc | 06-Oct-2024 17:25 | 1476984 | ||
| PBPA2_TS_DEWT_012020.nc | 06-Oct-2024 18:04 | 1475741 | ||
| PBPA2_TS_DEWT_012021.nc | 06-Oct-2024 18:34 | 1476796 | ||
| PBPA2_TS_DEWT_012022.nc | 06-Oct-2024 19:00 | 1475434 | ||
| PBPA2_TS_DEWT_012023.nc | 06-Oct-2024 19:35 | 1476710 | ||
| PBPA2_TS_DEWT_012025.nc | 07-Feb-2025 13:43 | 1476954 | ||
| PBPA2_TS_DEWT_012026.nc | 02-Feb-2026 19:56 | 1474818 | ||
| PBPA2_TS_DEWT_022007.nc | 06-Oct-2024 14:34 | 1476234 | ||
| PBPA2_TS_DEWT_022008.nc | 06-Oct-2024 15:11 | 1476947 | ||
| PBPA2_TS_DEWT_022017.nc | 06-Oct-2024 16:10 | 1477045 | ||
| PBPA2_TS_DEWT_022018.nc | 06-Oct-2024 16:50 | 1476844 | ||
| PBPA2_TS_DEWT_022019.nc | 06-Oct-2024 17:29 | 1624756 | ||
| PBPA2_TS_DEWT_022020.nc | 06-Oct-2024 18:06 | 1626757 | ||
| PBPA2_TS_DEWT_022021.nc | 06-Oct-2024 18:36 | 1625472 | ||
| PBPA2_TS_DEWT_022022.nc | 06-Oct-2024 19:03 | 1626547 | ||
| PBPA2_TS_DEWT_022023.nc | 06-Oct-2024 19:37 | 1474967 | ||
| PBPA2_TS_DEWT_022025.nc | 03-Mar-2025 06:54 | 1625059 | ||
| PBPA2_TS_DEWT_022026.nc | 01-Mar-2026 10:28 | 1626760 | ||
| PBPA2_TS_DEWT_032007.nc | 06-Oct-2024 14:37 | 1624844 | ||
| PBPA2_TS_DEWT_032016.nc | 06-Oct-2024 15:34 | 1625317 | ||
| PBPA2_TS_DEWT_032017.nc | 06-Oct-2024 16:13 | 1626560 | ||
| PBPA2_TS_DEWT_032018.nc | 06-Oct-2024 16:53 | 1626436 | ||
| PBPA2_TS_DEWT_032019.nc | 06-Oct-2024 17:32 | 1463997 | ||
| PBPA2_TS_DEWT_032020.nc | 06-Oct-2024 18:09 | 1475332 | ||
| PBPA2_TS_DEWT_032021.nc | 06-Oct-2024 18:37 | 1475749 | ||
| PBPA2_TS_DEWT_032022.nc | 06-Oct-2024 19:06 | 1475501 | ||
| PBPA2_TS_DEWT_032023.nc | 06-Oct-2024 19:41 | 1476714 | ||
| PBPA2_TS_DEWT_032025.nc | 02-Apr-2025 06:09 | 1467920 | ||
| PBPA2_TS_DEWT_032026.nc | 17-Mar-2026 12:52 | 1470965 | ||
| PBPA2_TS_DEWT_042007.nc | 06-Oct-2024 14:39 | 1476879 | ||
| PBPA2_TS_DEWT_042016.nc | 06-Oct-2024 15:37 | 1472591 | ||
| PBPA2_TS_DEWT_042017.nc | 06-Oct-2024 16:17 | 1471824 | ||
| PBPA2_TS_DEWT_042018.nc | 06-Oct-2024 16:56 | 1477009 | ||
| PBPA2_TS_DEWT_042019.nc | 06-Oct-2024 17:37 | 1476993 | ||
| PBPA2_TS_DEWT_042020.nc | 06-Oct-2024 18:11 | 1476938 | ||
| PBPA2_TS_DEWT_042021.nc | 06-Oct-2024 18:39 | 1626729 | ||
| PBPA2_TS_DEWT_042022.nc | 06-Oct-2024 19:10 | 1626542 | ||
| PBPA2_TS_DEWT_042023.nc | 06-Oct-2024 19:45 | 1624769 | ||
| PBPA2_TS_DEWT_042025.nc | 01-May-2025 06:51 | 1625676 | ||
| PBPA2_TS_DEWT_052007.nc | 06-Oct-2024 14:42 | 1626448 | ||
| PBPA2_TS_DEWT_052016.nc | 06-Oct-2024 15:41 | 1626679 | ||
| PBPA2_TS_DEWT_052017.nc | 06-Oct-2024 16:21 | 1624249 | ||
| PBPA2_TS_DEWT_052018.nc | 06-Oct-2024 16:59 | 1626191 | ||
| PBPA2_TS_DEWT_052019.nc | 06-Oct-2024 17:38 | 1626722 | ||
| PBPA2_TS_DEWT_052020.nc | 06-Oct-2024 18:14 | 1626081 | ||
| PBPA2_TS_DEWT_052021.nc | 06-Oct-2024 18:41 | 1474781 | ||
| PBPA2_TS_DEWT_052022.nc | 06-Oct-2024 19:13 | 1626726 | ||
| PBPA2_TS_DEWT_052023.nc | 06-Oct-2024 19:48 | 995275 | ||
| PBPA2_TS_DEWT_052025.nc | 01-Jun-2025 07:36 | 1474213 | ||
| PBPA2_TS_DEWT_062007.nc | 06-Oct-2024 14:45 | 1472116 | ||
| PBPA2_TS_DEWT_062015.nc | 06-Oct-2024 15:14 | 1156335 | ||
| PBPA2_TS_DEWT_062016.nc | 06-Oct-2024 15:44 | 906402 | ||
| PBPA2_TS_DEWT_062017.nc | 06-Oct-2024 16:25 | 1159573 | ||
| PBPA2_TS_DEWT_062018.nc | 06-Oct-2024 17:02 | 1155102 | ||
| PBPA2_TS_DEWT_062019.nc | 06-Oct-2024 17:42 | 916779 | ||
| PBPA2_TS_DEWT_062020.nc | 06-Oct-2024 18:17 | 434803 | ||
| PBPA2_TS_DEWT_062021.nc | 06-Oct-2024 18:43 | 1465521 | ||
| PBPA2_TS_DEWT_062022.nc | 06-Oct-2024 19:16 | 1462632 | ||
| PBPA2_TS_DEWT_062023.nc | 06-Oct-2024 19:51 | 1472477 | ||
| PBPA2_TS_DEWT_062025.nc | 01-Jul-2025 07:53 | 1144980 | ||
| PBPA2_TS_DEWT_072007.nc | 06-Oct-2024 14:47 | 1149821 | ||
| PBPA2_TS_DEWT_072015.nc | 06-Oct-2024 15:17 | 1145508 | ||
| PBPA2_TS_DEWT_072016.nc | 06-Oct-2024 15:47 | 420459 | ||
| PBPA2_TS_DEWT_072017.nc | 06-Oct-2024 16:29 | 1474612 | ||
| PBPA2_TS_DEWT_072018.nc | 06-Oct-2024 17:05 | 1464374 | ||
| PBPA2_TS_DEWT_072019.nc | 06-Oct-2024 17:46 | 1469924 | ||
| PBPA2_TS_DEWT_072020.nc | 06-Oct-2024 18:19 | 1476609 | ||
| PBPA2_TS_DEWT_072021.nc | 06-Oct-2024 18:45 | 915192 | ||
| PBPA2_TS_DEWT_072022.nc | 06-Oct-2024 19:19 | 1156155 | ||
| PBPA2_TS_DEWT_072023.nc | 06-Oct-2024 19:54 | 1156797 | ||
| PBPA2_TS_DEWT_072025.nc | 01-Aug-2025 08:32 | 1464559 | ||
| PBPA2_TS_DEWT_082007.nc | 06-Oct-2024 14:51 | 1157682 | ||
| PBPA2_TS_DEWT_082015.nc | 06-Oct-2024 15:19 | 1465059 | ||
| PBPA2_TS_DEWT_082016.nc | 06-Oct-2024 15:50 | 1467938 | ||
| PBPA2_TS_DEWT_082017.nc | 06-Oct-2024 16:32 | 1150530 | ||
| PBPA2_TS_DEWT_082018.nc | 06-Oct-2024 17:08 | 1154373 | ||
| PBPA2_TS_DEWT_082019.nc | 06-Oct-2024 17:49 | 1152470 | ||
| PBPA2_TS_DEWT_082020.nc | 06-Oct-2024 18:22 | 1625678 | ||
| PBPA2_TS_DEWT_082021.nc | 06-Oct-2024 18:48 | 1465892 | ||
| PBPA2_TS_DEWT_082022.nc | 06-Oct-2024 19:22 | 1472342 | ||
| PBPA2_TS_DEWT_082023.nc | 06-Oct-2024 19:56 | 1626399 | ||
| PBPA2_TS_DEWT_082025.nc | 01-Sep-2025 09:35 | 1155488 | ||
| PBPA2_TS_DEWT_092007.nc | 06-Oct-2024 14:55 | 1156973 | ||
| PBPA2_TS_DEWT_092015.nc | 06-Oct-2024 15:21 | 1156472 | ||
| PBPA2_TS_DEWT_092016.nc | 06-Oct-2024 15:54 | 1474018 | ||
| PBPA2_TS_DEWT_092017.nc | 06-Oct-2024 16:34 | 1154498 | ||
| PBPA2_TS_DEWT_092018.nc | 06-Oct-2024 17:12 | 1475151 | ||
| PBPA2_TS_DEWT_092019.nc | 06-Oct-2024 17:51 | 1476968 | ||
| PBPA2_TS_DEWT_092020.nc | 06-Oct-2024 18:25 | 1148475 | ||
| PBPA2_TS_DEWT_092021.nc | 06-Oct-2024 18:50 | 1153750 | ||
| PBPA2_TS_DEWT_092022.nc | 06-Oct-2024 19:24 | 1153503 | ||
| PBPA2_TS_DEWT_092023.nc | 06-Oct-2024 19:59 | 1475434 | ||
| PBPA2_TS_DEWT_092025.nc | 01-Oct-2025 10:06 | 1475357 | ||
| PBPA2_TS_DEWT_102006.nc | 06-Oct-2024 14:25 | 1474547 | ||
| PBPA2_TS_DEWT_102007.nc | 06-Oct-2024 14:58 | 1463922 | ||
| PBPA2_TS_DEWT_102015.nc | 06-Oct-2024 15:24 | 1149931 | ||
| PBPA2_TS_DEWT_102016.nc | 06-Oct-2024 15:57 | 1154361 | ||
| PBPA2_TS_DEWT_102017.nc | 06-Oct-2024 16:37 | 1154968 | ||
| PBPA2_TS_DEWT_102018.nc | 06-Oct-2024 17:15 | 1472750 | ||
| PBPA2_TS_DEWT_102019.nc | 06-Oct-2024 17:54 | 1467201 | ||
| PBPA2_TS_DEWT_102020.nc | 06-Oct-2024 18:27 | 1459900 | ||
| PBPA2_TS_DEWT_102021.nc | 06-Oct-2024 18:53 | 1144476 | ||
| PBPA2_TS_DEWT_102022.nc | 06-Oct-2024 19:27 | 1155870 | ||
| PBPA2_TS_DEWT_102023.nc | 06-Oct-2024 20:02 | 1154926 | ||
| PBPA2_TS_DEWT_102024.nc | 12-Jan-2025 23:30 | 1157116 | ||
| PBPA2_TS_DEWT_102025.nc | 01-Nov-2025 09:41 | 1475160 | ||
| PBPA2_TS_DEWT_112006.nc | 06-Oct-2024 14:26 | 1156292 | ||
| PBPA2_TS_DEWT_112007.nc | 06-Oct-2024 15:01 | 1466571 | ||
| PBPA2_TS_DEWT_112015.nc | 06-Oct-2024 15:27 | 1472255 | ||
| PBPA2_TS_DEWT_112016.nc | 06-Oct-2024 15:59 | 1150076 | ||
| PBPA2_TS_DEWT_112017.nc | 06-Oct-2024 16:40 | 1154675 | ||
| PBPA2_TS_DEWT_112018.nc | 06-Oct-2024 17:18 | 1155214 | ||
| PBPA2_TS_DEWT_112019.nc | 06-Oct-2024 17:57 | 1460812 | ||
| PBPA2_TS_DEWT_112020.nc | 06-Oct-2024 18:30 | 1475404 | ||
| PBPA2_TS_DEWT_112021.nc | 06-Oct-2024 18:55 | 1464739 | ||
| PBPA2_TS_DEWT_112022.nc | 06-Oct-2024 19:30 | 1474348 | ||
| PBPA2_TS_DEWT_112023.nc | 06-Oct-2024 20:05 | 1478384 | ||
| PBPA2_TS_DEWT_112024.nc | 17-Jan-2025 20:55 | 1154297 | ||
| PBPA2_TS_DEWT_112025.nc | 01-Dec-2025 06:45 | 1155542 | ||
| PBPA2_TS_DEWT_122006.nc | 06-Oct-2024 14:28 | 1156499 | ||
| PBPA2_TS_DEWT_122007.nc | 06-Oct-2024 15:05 | 1476938 | ||
| PBPA2_TS_DEWT_122015.nc | 06-Oct-2024 15:29 | 1466265 | ||
| PBPA2_TS_DEWT_122016.nc | 06-Oct-2024 16:02 | 1465097 | ||
| PBPA2_TS_DEWT_122017.nc | 06-Oct-2024 16:43 | 1474153 | ||
| PBPA2_TS_DEWT_122018.nc | 06-Oct-2024 17:22 | 1161156 | ||
| PBPA2_TS_DEWT_122019.nc | 06-Oct-2024 18:01 | 1152186 | ||
| PBPA2_TS_DEWT_122020.nc | 06-Oct-2024 18:32 | 1152731 | ||
| PBPA2_TS_DEWT_122021.nc | 06-Oct-2024 18:58 | 1154442 | ||
| PBPA2_TS_DEWT_122022.nc | 06-Oct-2024 19:33 | 1477944 | ||
| PBPA2_TS_DEWT_122023.nc | 06-Oct-2024 20:08 | 1469751 | ||
| PBPA2_TS_DEWT_122024.nc | 22-Jan-2025 20:31 | 1474371 | ||
| PBPA2_TS_DEWT_122025.nc | 01-Jan-2026 08:06 | 1464309 | ||